FENGYUN 1C DEB

Satellite information

Favourite Embed

Satellite Type and Status

DEBRISIN ORBIT

Key statistics

Satellite FENGYUN 1C DEB at a glance.

Uptime

9556

Days in orbit

Revolutions

≈ 14.1

Per day

Orbit

SSO

Sun Synchronous Orbit

Inclination

98.7

Latest

Satellite identification and parameters

Extended collection of information and parameters for FENGYUN 1C DEB.

Object identification

Identified? True

Debris? True

Object name: FENGYUN 1C DEB

International designator: 1999-025HV

Object number (NORAD): 29923

Object ID (CCSDS): 29923

Country: PEOPLES REPUBLIC OF CHINA (PRC)

Current information (Y/N): Y

RCS size: SMALL

Orbital parameters

Period: 101.872 minutes

Inclination: 98.6901 deg

SMA: 7225.437 km

Apoapsis: 858.749 km

Periapsis: 835.855 km

RAAN: 201.49 deg

Eccentricy: 0.0015843

Argument of periapsis: 261.6141 deg

Mean anomaly: 276.6709 deg

Mean motion: 14.13535044 rev/day

Mean motion (dot): 0.00000549 rev/day2

B* drag term: 0.00031411 1/REarth

Two-line elements (TLE)

Creation date: July 8, 2025, 2:27 a.m.

Reference frame: TEME

Reference center: EARTH

Epoch: July 7, 2025, 6:47 p.m. UTC

TLE line 0: 0 FENGYUN 1C DEB

TLE line 1: 1 29923U 99025HV 25188.78289414 .00000549 00000-0 31411-3 0 9998

TLE line 2: 2 29923 98.6901 201.4900 0015843 261.6141 276.6709 14.13535044950436

Live tracking on map

Real-time ground track for satellite FENGYUN 1C DEB.

In-orbit conjunctions

A list of the most updated potential collisions computed for object FENGYUN 1C DEB.

Target Orbit TCA Probability of collision Miss distance Type
FENGYUN 1C DEB SSO 2025-02-22 04:51:21 0.0001573719 83.0 (m) DEBRIS
COSMOS 2406 LEO 2025-01-18 13:05:29 0.0002874291 561.0 (m) PAYLOAD

Associated space launch

Chinese polar orbiting meteorological satellite

FENGYUN 1C DEB was lifted into orbit during the mission ‘Long March 4B | Feng Yun 1C’, on board a Long March 4B space rocket.

The launch took place on May 10, 1999, 1:33 a.m. from Launch Complex 7.

For more information about the launch, click the button.

Launch to space Long March 4B | Feng Yun 1C
Long March 4B | Feng Yun 1C

Agency: N/A

Status: Launch Successful

Launch date: May 10, 1999, 1:33 a.m. UTC

Rocket: Long March 4B

Launch pad: Launch Complex 7

Location: Taiyuan Satellite Launch Center, People's Republic of China

...

Latest news about this satellite

There are no fresh news available about this satellite. Check back as we update our databases every day.


Newsletter sign-up

Weekly statistics, charts and insights to help you stay on top of the space industry.